Time,TemperatureF,DewpointF,PressureIn,WindDirection,WindDirectionDegrees,WindSpeedMPH,WindSpeedGustMPH,Humidity,HourlyPrecipIn,Conditions,Clouds,dailyrainin,SoftwareType,DateUTC
2013-02-13 00:01:00,33.6,-0.2,29.94,WNW,292,0.0,0.0,23,87.20,,---,0.00,VWS V14.00,2013-02-13 05:01:00,
2013-02-13 00:04:00,33.6,-0.2,29.94,WNW,292,0.0,0.0,23,87.20,,---,0.00,VWS V14.00,2013-02-13 05:04:00,
2013-02-13 00:06:00,33.6,-0.2,29.94,WNW,292,0.0,0.0,23,87.20,,---,0.00,VWS V14.00,2013-02-13 05:06:00,
2013-02-13 00:07:00,33.6,-0.2,29.94,WNW,292,0.0,0.0,23,87.20,,---,0.00,VWS V14.00,2013-02-13 05:07:00,
2013-02-13 00:11:00,33.6,-0.2,29.94,WNW,292,0.0,0.0,23,87.20,,---,0.00,VWS V14.00,2013-02-13 05:11:00,
2013-02-13 00:12:00,33.6,-0.2,29.94,WNW,292,0.0,0.0,23,87.20,,---,0.00,VWS V14.00,2013-02-13 05:12:00,
2013-02-13 00:15:00,33.6,-0.2,29.94,WNW,292,0.0,0.0,23,87.20,,---,0.00,VWS V14.00,2013-02-13 05:15:00,
2013-02-13 00:17:00,33.4,-0.4,29.94,WNW,292,0.0,0.0,23,87.20,,---,0.00,VWS V14.00,2013-02-13 05:17:00,
2013-02-13 00:18:00,33.4,-0.4,29.94,WNW,292,0.0,0.0,23,87.20,,---,0.00,VWS V14.00,2013-02-13 05:18:00,
2013-02-13 00:19:00,33.4,-0.4,29.94,WNW,292,0.0,0.0,23,87.20,,---,0.00,VWS V14.00,2013-02-13 05:19:00,
2013-02-13 00:20:00,33.3,-0.5,29.94,WNW,292,0.0,0.0,23,87.20,,---,0.00,VWS V14.00,2013-02-13 05:20:00,
2013-02-13 00:22:00,33.3,-0.5,29.94,WNW,292,0.0,0.0,23,87.20,,---,0.00,VWS V14.00,2013-02-13 05:22:00,
2013-02-13 00:27:00,33.3,-0.5,29.94,WNW,292,0.0,0.0,23,87.20,,---,0.00,VWS V14.00,2013-02-13 05:27:00,
2013-02-13 00:28:00,33.3,-0.5,29.94,WNW,292,0.0,0.0,23,87.20,,---,0.00,VWS V14.00,2013-02-13 05:28:00,
2013-02-13 00:30:00,33.3,-0.5,29.94,WNW,292,0.0,0.0,23,87.20,,---,0.00,VWS V14.00,2013-02-13 05:30:00,
2013-02-13 00:33:00,33.3,-0.5,29.94,NNE,22,2.7,2.7,23,0.00,,---,0.00,VWS V14.00,2013-02-13 05:33:00,
2013-02-13 00:34:00,33.3,-0.5,29.94,NNE,22,2.7,2.7,23,0.00,,---,0.00,VWS V14.00,2013-02-13 05:34:00,
2013-02-13 00:35:00,33.3,-0.5,29.94,NNE,22,2.7,2.7,23,0.00,,---,0.00,VWS V14.00,2013-02-13 05:35:00,
2013-02-13 00:39:00,33.1,-0.7,29.94,NNE,22,2.7,2.7,23,0.00,,---,0.00,VWS V14.00,2013-02-13 05:39:00,
2013-02-13 00:41:00,33.1,-0.7,29.94,NNE,22,2.7,2.7,23,0.00,,---,0.00,VWS V14.00,2013-02-13 05:41:00,
2013-02-13 00:43:00,32.9,-0.8,29.94,NNE,22,2.7,2.7,23,0.00,,---,0.00,VWS V14.00,2013-02-13 05:43:00,
2013-02-13 00:44:00,33.1,-0.7,29.94,NNE,22,2.7,2.7,23,0.00,,---,0.00,VWS V14.00,2013-02-13 05:44:00,
2013-02-13 00:47:00,32.9,-0.8,0.00,SE,135,0.0,690.1,23,99.99,,---,0.70,VWS V14.00,2013-02-13 05:47:00,
2013-02-13 00:49:00,32.9,-0.8,0.00,SE,135,0.0,744.7,23,0.05,,---,99.99,VWS V14.00,2013-02-13 05:49:00,
2013-02-13 00:50:00,32.9,-0.8,0.00,SE,135,0.0,744.7,23,0.05,,---,99.99,VWS V14.00,2013-02-13 05:50:00,
2013-02-13 00:52:00,32.9,-0.8,0.00,South,180,0.0,690.1,23,99.99,,---,0.70,VWS V14.00,2013-02-13 05:52:00,
2013-02-13 00:54:00,33.1,2.8,0.00,SE,135,0.0,744.7,27,0.05,,---,99.99,VWS V14.00,2013-02-13 05:54:00,
2013-02-13 00:55:00,33.1,2.8,0.00,SE,135,0.0,744.7,27,0.05,,---,99.99,VWS V14.00,2013-02-13 05:55:00,
2013-02-13 00:58:00,78.1,78.1,0.00,SE,135,0.0,690.3,100,99.99,,---,0.00,VWS V14.00,2013-02-13 05:58:00,
2013-02-13 01:00:00,32.5,-1.1,0.00,SE,135,0.0,690.3,23,0.05,,---,99.99,VWS V14.00,2013-02-13 06:00:00,
2013-02-13 01:03:00,32.4,0.0,0.00,SE,135,0.0,744.7,100,99.99,,---,99.99,VWS V14.00,2013-02-13 06:03:00,
2013-02-13 01:05:00,32.4,-1.3,0.00,SE,135,0.0,690.3,23,99.99,,---,0.00,VWS V14.00,2013-02-13 06:05:00,
2013-02-13 01:09:00,32.2,-1.4,0.00,East,90,0.0,690.3,23,99.99,,---,0.30,VWS V14.00,2013-02-13 06:09:00,
2013-02-13 01:10:00,32.0,-1.6,0.00,SW,225,0.0,690.3,23,99.99,,---,0.30,VWS V14.00,2013-02-13 06:10:00,
2013-02-13 01:11:00,32.0,-1.6,0.00,SW,225,0.0,690.3,23,99.99,,---,0.30,VWS V14.00,2013-02-13 06:11:00,
2013-02-13 01:14:00,32.0,-1.6,0.00,SE,135,0.0,802.0,23,99.99,,---,99.99,VWS V14.00,2013-02-13 06:14:00,
2013-02-13 01:15:00,32.0,0.0,0.00,NE,45,0.0,690.3,0,99.99,,---,0.10,VWS V14.00,2013-02-13 06:15:00,
2013-02-13 01:16:00,32.0,0.0,0.00,NE,45,0.0,690.3,0,99.99,,---,0.10,VWS V14.00,2013-02-13 06:16:00,
2013-02-13 01:21:00,32.0,-1.6,29.94,NNE,22,2.7,2.7,23,0.00,,---,0.00,VWS V14.00,2013-02-13 06:21:00,
2013-02-13 01:22:00,32.0,-1.6,29.94,NNE,22,2.7,2.7,23,0.00,,---,0.00,VWS V14.00,2013-02-13 06:22:00,
2013-02-13 01:23:00,32.2,-1.4,29.94,NNE,22,2.7,2.7,23,0.00,,---,0.00,VWS V14.00,2013-02-13 06:23:00,
2013-02-13 01:27:00,32.2,-1.4,29.94,NNE,22,2.7,2.7,23,0.00,,---,0.00,VWS V14.00,2013-02-13 06:27:00,
2013-02-13 01:28:00,32.2,-1.4,29.94,NNE,22,2.7,2.7,23,0.00,,---,0.00,VWS V14.00,2013-02-13 06:28:00,
2013-02-13 01:29:00,32.0,-1.6,29.94,NNE,22,2.7,2.7,23,0.00,,---,0.00,VWS V14.00,2013-02-13 06:29:00,
2013-02-13 01:30:00,32.2,-1.4,29.94,NNE,22,2.7,2.7,23,0.00,,---,0.00,VWS V14.00,2013-02-13 06:30:00,
2013-02-13 01:34:00,32.2,-1.4,29.94,NNE,22,2.7,2.7,23,0.00,,---,0.00,VWS V14.00,2013-02-13 06:34:00,
2013-02-13 01:36:00,32.2,-1.4,29.94,NNE,22,2.7,2.7,23,0.00,,---,0.00,VWS V14.00,2013-02-13 06:36:00,
2013-02-13 01:39:00,32.0,-1.6,29.94,NNE,22,2.7,2.7,23,0.00,,---,0.00,VWS V14.00,2013-02-13 06:39:00,
2013-02-13 01:41:00,32.2,-1.4,29.94,NNE,22,2.7,2.7,23,0.00,,---,0.00,VWS V14.00,2013-02-13 06:41:00,
2013-02-13 01:45:00,32.4,-1.3,29.94,NNE,22,2.7,2.7,23,0.00,,---,0.00,VWS V14.00,2013-02-13 06:45:00,
2013-02-13 01:48:00,32.5,-1.1,29.94,NNE,22,2.7,2.7,23,0.00,,---,0.00,VWS V14.00,2013-02-13 06:48:00,
2013-02-13 01:50:00,32.5,-1.1,29.94,NNE,22,2.7,2.7,23,0.00,,---,0.00,VWS V14.00,2013-02-13 06:50:00,
2013-02-13 01:53:00,32.4,-1.3,29.94,NNE,22,2.7,2.7,23,0.00,,---,0.00,VWS V14.00,2013-02-13 06:53:00,
2013-02-13 01:54:00,32.4,-1.3,29.94,NNE,22,2.7,2.7,23,0.00,,---,0.00,VWS V14.00,2013-02-13 06:54:00,
2013-02-13 01:57:00,32.5,-1.1,29.94,NNE,22,2.7,2.7,23,0.00,,---,0.00,VWS V14.00,2013-02-13 06:57:00,
2013-02-13 02:00:00,32.5,-1.1,29.94,NNE,22,2.7,2.7,23,0.00,,---,0.00,VWS V14.00,2013-02-13 07:00:00,
2013-02-13 02:04:00,32.5,-1.1,29.94,NNE,22,2.7,2.7,23,0.00,,---,0.00,VWS V14.00,2013-02-13 07:04:00,
2013-02-13 02:05:00,32.5,-1.1,29.94,NNE,22,2.7,2.7,23,0.00,,---,0.00,VWS V14.00,2013-02-13 07:05:00,
2013-02-13 02:06:00,32.4,-1.3,29.94,NNE,22,2.7,2.7,23,0.00,,---,0.00,VWS V14.00,2013-02-13 07:06:00,
2013-02-13 02:09:00,32.4,-1.3,29.94,NNE,22,2.7,2.7,23,0.00,,---,0.00,VWS V14.00,2013-02-13 07:09:00,
2013-02-13 02:10:00,32.4,-1.3,29.94,NNE,22,2.7,2.7,23,0.00,,---,0.00,VWS V14.00,2013-02-13 07:10:00,
2013-02-13 02:13:00,32.2,-1.4,29.94,NNE,22,2.7,2.7,23,0.00,,---,0.00,VWS V14.00,2013-02-13 07:13:00,
2013-02-13 02:15:00,32.2,-1.4,29.94,NNE,22,2.7,2.7,23,0.00,,---,0.00,VWS V14.00,2013-02-13 07:15:00,
2013-02-13 02:16:00,32.0,-1.6,29.94,NNE,22,2.7,2.7,23,0.00,,---,0.00,VWS V14.00,2013-02-13 07:16:00,
2013-02-13 02:19:00,31.8,-1.8,29.94,NNE,22,2.7,2.7,23,0.00,,---,0.00,VWS V14.00,2013-02-13 07:19:00,
2013-02-13 02:20:00,31.8,-1.8,29.94,NNE,22,2.7,2.7,23,0.00,,---,0.00,VWS V14.00,2013-02-13 07:20:00,
2013-02-13 02:22:00,32.2,-1.4,29.94,NNE,22,2.7,2.7,23,0.00,,---,0.00,VWS V14.00,2013-02-13 07:22:00,
2013-02-13 02:25:00,32.2,-1.4,29.94,NNE,22,2.7,2.7,23,0.00,,---,0.00,VWS V14.00,2013-02-13 07:25:00,
2013-02-13 02:26:00,32.2,-1.4,29.94,NNE,22,2.7,2.7,23,0.00,,---,0.00,VWS V14.00,2013-02-13 07:26:00,
2013-02-13 02:27:00,32.2,-1.4,29.94,NNE,22,2.7,2.7,23,0.00,,---,0.00,VWS V14.00,2013-02-13 07:27:00,
2013-02-13 02:29:00,32.4,-1.3,29.94,NNE,22,2.7,2.7,23,0.00,,---,0.00,VWS V14.00,2013-02-13 07:29:00,
2013-02-13 02:32:00,32.2,-1.4,29.94,NNE,22,2.7,2.7,23,0.00,,---,0.00,VWS V14.00,2013-02-13 07:32:00,
2013-02-13 02:34:00,32.2,-1.4,29.94,NNE,22,2.7,2.7,23,0.00,,---,0.00,VWS V14.00,2013-02-13 07:34:00,
2013-02-13 02:38:00,32.0,-1.6,29.91,NNE,22,2.7,2.7,23,0.00,,---,0.00,VWS V14.00,2013-02-13 07:38:00,
2013-02-13 02:39:00,32.2,-1.4,29.91,NNE,22,2.7,2.7,23,0.00,,---,0.00,VWS V14.00,2013-02-13 07:39:00,
2013-02-13 02:40:00,32.2,-1.4,29.91,NNE,22,2.7,2.7,23,0.00,,---,0.00,VWS V14.00,2013-02-13 07:40:00,
2013-02-13 02:41:00,32.2,-1.4,29.91,NNE,22,2.7,2.7,23,0.00,,---,0.00,VWS V14.00,2013-02-13 07:41:00,
2013-02-13 02:45:00,31.8,-1.8,29.91,NNE,22,2.7,2.7,23,0.00,,---,0.00,VWS V14.00,2013-02-13 07:45:00,
2013-02-13 02:46:00,31.8,-1.8,29.91,NNE,22,2.7,2.7,23,0.00,,---,0.00,VWS V14.00,2013-02-13 07:46:00,
2013-02-13 02:48:00,31.6,-1.9,29.91,NNE,22,2.7,2.7,23,0.00,,---,0.00,VWS V14.00,2013-02-13 07:48:00,
2013-02-13 02:49:00,31.6,-1.9,29.91,NNE,22,2.7,2.7,23,0.00,,---,0.00,VWS V14.00,2013-02-13 07:49:00,
2013-02-13 02:54:00,31.5,-2.0,29.94,NNE,22,2.7,2.7,23,0.00,,---,0.00,VWS V14.00,2013-02-13 07:54:00,
2013-02-13 02:55:00,31.3,-2.2,29.94,NNE,22,2.7,2.7,23,0.00,,---,0.00,VWS V14.00,2013-02-13 07:55:00,
2013-02-13 02:56:00,31.3,-2.2,29.94,NNE,22,2.7,2.7,23,0.00,,---,0.00,VWS V14.00,2013-02-13 07:56:00,
2013-02-13 03:00:00,31.1,-2.4,29.94,NNE,22,2.7,2.7,23,0.00,,---,0.00,VWS V14.00,2013-02-13 08:00:00,
2013-02-13 03:01:00,31.1,-2.4,29.94,NNE,22,2.7,2.7,23,0.00,,---,0.00,VWS V14.00,2013-02-13 08:01:00,
2013-02-13 03:02:00,31.1,-2.4,29.94,NNE,22,2.7,2.7,23,0.00,,---,0.00,VWS V14.00,2013-02-13 08:02:00,
2013-02-13 03:03:00,31.1,-2.4,29.94,NNE,22,2.7,2.7,23,0.00,,---,0.00,VWS V14.00,2013-02-13 08:03:00,
2013-02-13 03:06:00,30.9,-2.5,29.91,NNE,22,2.7,2.7,23,0.00,,---,0.00,VWS V14.00,2013-02-13 08:06:00,
2013-02-13 03:07:00,30.9,-2.5,29.91,NNE,22,2.7,2.7,23,0.00,,---,0.00,VWS V14.00,2013-02-13 08:07:00,
2013-02-13 03:08:00,30.7,-2.7,29.91,NNE,22,2.7,2.7,23,0.00,,---,0.00,VWS V14.00,2013-02-13 08:08:00,
2013-02-13 03:11:00,30.4,-3.0,29.91,NNE,22,2.7,2.7,23,0.00,,---,0.00,VWS V14.00,2013-02-13 08:11:00,
2013-02-13 03:13:00,30.4,-3.0,29.91,NNE,22,2.7,2.7,23,0.00,,---,0.00,VWS V14.00,2013-02-13 08:13:00,
2013-02-13 03:14:00,30.2,-3.1,29.91,NNE,22,2.7,2.7,23,0.00,,---,0.00,VWS V14.00,2013-02-13 08:14:00,
2013-02-13 03:17:00,30.2,-3.1,29.91,NNE,22,2.7,2.7,23,0.00,,---,0.00,VWS V14.00,2013-02-13 08:17:00,
2013-02-13 03:18:00,30.2,-3.1,29.91,NNE,22,2.7,2.7,23,0.00,,---,0.00,VWS V14.00,2013-02-13 08:18:00,
2013-02-13 03:19:00,30.2,-3.1,29.91,NNE,22,2.7,2.7,23,0.00,,---,0.00,VWS V14.00,2013-02-13 08:19:00,
2013-02-13 03:21:00,30.4,-3.0,29.91,NNE,22,2.7,2.7,23,0.00,,---,0.00,VWS V14.00,2013-02-13 08:21:00,
2013-02-13 03:24:00,30.9,-0.8,29.91,NNE,22,2.7,2.7,25,0.00,,---,0.00,VWS V14.00,2013-02-13 08:24:00,